Ashland, ME

9:59 PM EDT on September 30, 2016 (GMT -0400)
Clayton Lake

Weather History for K40B - April, 2013

Change the Weather History Date:

Sunday, April 21, 2013

  Actual Average Record
Temperature  
Mean Temperature 33 °F -  
Max Temperature 42 °F 46 °F 66 °F (2016)
Min Temperature 23 °F 26 °F 21 °F (2004)
Degree Days  
Heating Degree Days 32    
Moisture  
Dew Point 16 °F    
Average Humidity 54    
Maximum Humidity 86    
Minimum Humidity 25    
Precipitation  
Precipitation 0.01 in - - ()
Sea Level Pressure  
Sea Level Pressure 30.47 in    
Wind  
Wind Speed 4 mph (West)    
Max Wind Speed 8 mph    
Max Gust Speed 18 mph    
Averages and records for this station are not official NWS values.
T = Trace of Precipitation, MM = Missing Value Source: NWS Daily Summary

Daily Weather History Graph

Daily Weather History Graph

Search for Another Location

Airport or City:

Trip Planner

Search our weather history database for the weather conditions in past years. The results will help you decide how hot, cold, wet, or windy it might be!

Date:

Astronomy

Apr. 21, 2013 Rise Set
Actual Time 5:39 AM EDT 7:34 PM EDT
Civil Twilight 5:07 AM EDT 8:07 PM EDT
Nautical Twilight 4:27 AM EDT 8:46 PM EDT
Astronomical Twilight 3:44 AM EDT 9:30 PM EDT
Moon 3:01 PM EDT (4/21) 3:16 AM EDT (4/21)
Length of Visible Light 14h 59m
Length of Day
13h 54m
Waxing Gibbous, 79% of the Moon is Illuminated
Apr 21
Waxing Gibbous
Apr 25
Full
May 2
Last Quarter
May 9
New
May 18
First Quarter

Hourly Weather History & Observations

Time (EDT) Temp. Windchill Dew Point Humidity Pressure Visibility Wind Dir Wind Speed Gust Speed Precip Events Conditions
12:25 AM 33.1 °F 30.0 °F 25.3 °F 73% 30.10 in - Variable 3.5 mph - 0.00 in   Unknown
1:25 AM 32.7 °F 28.3 °F 23.2 °F 68% 30.12 in - Variable 4.6 mph 15.0 mph N/A   Unknown
2:25 AM 31.5 °F - 21.6 °F 67% 30.15 in - Variable 2.3 mph - N/A   Unknown
3:25 AM 30.0 °F 26.5 °F 20.7 °F 68% 30.19 in - Variable 3.5 mph - N/A   Unknown
4:25 AM 28.8 °F 22.6 °F 17.1 °F 62% 30.25 in - Variable 5.8 mph - 0.00 in   Unknown
5:25 AM 27.9 °F 22.6 °F 17.2 °F 64% 30.30 in - Variable 4.6 mph - N/A   Unknown
6:25 AM 27.0 °F 21.6 °F 16.2 °F 64% 30.35 in - Variable 4.6 mph - N/A   Unknown
7:25 AM 27.3 °F 22.0 °F 16.5 °F 64% 30.39 in - Variable 4.6 mph - N/A   Unknown
8:25 AM 28.2 °F 21.0 °F 15.8 °F 60% 30.44 in - Variable 6.9 mph 12.7 mph N/A   Unknown
9:25 AM 30.0 °F 26.5 °F 15.6 °F 55% 30.47 in - Variable 3.5 mph 15.0 mph N/A   Unknown
10:25 AM 31.1 °F 26.4 °F 13.5 °F 48% 30.50 in - Variable 4.6 mph - N/A   Unknown
11:25 AM 33.3 °F 27.1 °F 11.8 °F 41% 30.52 in - Variable 6.9 mph 18.4 mph N/A   Unknown
12:25 PM 36.0 °F 29.6 °F 9.3 °F 33% 30.53 in - West 8.1 mph 15.0 mph N/A   Unknown
1:25 PM 38.3 °F 33.9 °F 11.1 °F 33% 30.55 in - Variable 5.8 mph 13.8 mph N/A   Unknown
2:25 PM 39.0 °F 34.0 °F 10.9 °F 32% 30.56 in - Variable 6.9 mph 17.3 mph N/A   Unknown
3:25 PM 40.8 °F 37.8 °F 10.0 °F 28% 30.56 in - Variable 4.6 mph 13.8 mph N/A   Unknown
4:25 PM 40.8 °F 37.8 °F 8.1 °F 26% 30.57 in - Variable 4.6 mph 13.8 mph N/A   Unknown
5:25 PM 40.8 °F - 7.0 °F 25% 30.59 in - Calm Calm - N/A   Unknown
6:25 PM 39.0 °F 36.8 °F 7.7 °F 27% 30.61 in - Variable 3.5 mph - N/A   Unknown
7:25 PM 33.6 °F - 16.9 °F 50% 30.63 in - Calm Calm - N/A   Unknown
8:25 PM 28.2 °F - 19.6 °F 70% 30.66 in - Calm Calm - N/A   Unknown
9:25 PM 27.0 °F - 19.9 °F 75% 30.69 in - Calm Calm - 0.01 in   Unknown
10:25 PM 26.1 °F - 19.9 °F 78% 30.72 in - Calm Calm - N/A   Unknown
11:25 PM 23.7 °F - 20.1 °F 86% 30.73 in - Calm Calm - 0.00 in   Unknown